Content
SEND FEEDBACK

Daily
Averages
Monthly
Summary
United States of America

STURGEON BAY, WISCONSIN


Home > North America > United States > Wisconsin
Elevation: 220 meters     Latitude: 44 50N     Longitude: 087 25W

WEATHER
 
SELECT A DAY
Number of Records: 459,995;   Date Range: 1/1/95 - 9/26/14
 
SHARE

PRINT THIS DATA

[ ← Previous Day ]
WEATHER ALMANAC - 13 FEBRUARY, 2013
[ Next Day → ]
[ °F ]   °C
Weather ElementAverageHighLow
Temperature-1.3 °C1 °C (2:35 pm)-4 °C (3:35 am)
Dewpoint-5.1 °C-3 °C (2:35 pm)-7 °C (12:35 am)
Humidity76.4 %86 % (4:55 am)69 % (12:15 pm)
Barometer1005.1 hPa1008.1 hPa (12:35 am)1003.7 hPa (1:35 pm)
Wind Speed13 km/h20.4 km/h (1:55 am)
Weather ElementAverage
Visibility13.8 km
Wind DirectionWSW (236.6 °)

Weather ElementTotal
Precipitation---
Heating Degree Days19.8 (Base 18.3)
Averaged from 70 records on 13 February, 2013
WEATHER CONDITIONS BREAKOUT
WIND DIRECTION BREAKOUT
WEATHER BY HOUR - 13 FEBRUARY, 2013
[ °F ]   °C
Local TimeTemperatureDewpointHumidityBarometerVisibilityWind DirectionWind SpeedGust SpeedPrecipitationEventsConditions
12:35 AM-3 °C-7 °C74 %1008.1 hPa16.1 kmWSW (240°)16.7 km/hScattered Clouds
12:55 AM-3 °C-7 °C74 %1007.8 hPa16.1 kmWSW (240°)16.7 km/hClear
1:15 AM-3 °C-7 °C74 %1007.8 hPa16.1 kmWSW (240°)16.7 km/hClear
1:35 AM-3 °C-7 °C74 %1008.1 hPa16.1 kmWSW (240°)14.8 km/hClear
1:55 AM-3 °C-7 °C74 %1007.8 hPa16.1 kmWSW (240°)20.4 km/hClear
2:15 AM-3 °C-6 °C80 %1007.5 hPa16.1 kmWSW (240°)18.5 km/hClear
2:35 AM-3 °C-6 °C80 %1007.5 hPa16.1 kmWSW (240°)13 km/hClear
2:55 AM-3 °C-6 °C80 %1007.1 hPa16.1 kmSW (230°)18.5 km/hClear
3:15 AM-3 °C-6 °C80 %1007.1 hPa16.1 kmSW (230°)13 km/hPartly Cloudy
3:35 AM-4 °C-7 °C80 %1007.1 hPa16.1 kmSW (220°)13 km/hPartly Cloudy
3:55 AM-4 °C-7 °C80 %1006.8 hPa16.1 kmSSW (210°)13 km/hClear
4:15 AM-4 °C-7 °C80 %1006.4 hPa12.9 kmSW (220°)14.8 km/hPartly Cloudy
4:35 AM-4 °C-7 °C80 %1006.4 hPa12.9 kmSW (220°)13 km/hScattered Clouds
4:55 AM-4 °C-6 °C86 %1006.1 hPa12.9 kmSW (220°)14.8 km/hOvercast
5:15 AM-4 °C-7 °C80 %1006.1 hPa12.9 kmSW (230°)13 km/hOvercast
5:35 AM-4 °C-7 °C80 %1006.1 hPa11.3 kmWSW (240°)14.8 km/hOvercast
5:55 AM-3 °C-6 °C80 %1005.8 hPa12.9 kmSW (230°)14.8 km/hOvercast
6:15 AM-4 °C-6 °C86 %1005.8 hPa12.9 kmWSW (250°)11.1 km/hOvercast
6:35 AM-3 °C-6 °C80 %1006.1 hPa12.9 kmWest (260°)11.1 km/hOvercast
6:55 AM-3 °C-6 °C80 %1005.8 hPa9.7 kmWSW (250°)16.7 km/hOvercast
7:15 AM-3 °C-6 °C80 %1005.8 hPa9.7 kmWSW (250°)14.8 km/hOvercast
7:35 AM-3 °C-6 °C80 %1005.8 hPa11.3 kmWSW (250°)16.7 km/hOvercast
7:55 AM-3 °C-6 °C80 %1005.8 hPa11.3 kmWSW (250°)13 km/hOvercast
8:15 AM-3 °C-6 °C80 %1005.4 hPa11.3 kmWSW (250°)13 km/hOvercast
8:35 AM-3 °C-6 °C80 %1005.4 hPa12.9 kmWSW (250°)14.8 km/hOvercast
8:55 AM-3 °C-6 °C80 %1005.4 hPa11.3 kmWSW (250°)14.8 km/hOvercast
9:15 AM-3 °C-6 °C80 %1005.4 hPa12.9 kmWest (270°)14.8 km/hOvercast
9:35 AM-3 °C-6 °C80 %1005.1 hPa12.9 kmSW (230°)13 km/hOvercast
9:55 AM-3 °C-6 °C80 %1005.4 hPa12.9 kmWSW (240°)11.1 km/hOvercast
10:15 AM-2 °C-6 °C74 %1005.4 hPa12.9 kmWest (270°)11.1 km/hOvercast
10:35 AM-2 °C-6 °C74 %1005.1 hPa12.9 kmSW (230°)7.4 km/hOvercast
10:55 AM-2 °C-6 °C74 %1005.4 hPa12.9 kmWest (260°)11.1 km/hOvercast
11:15 AM-2 °C-6 °C74 %1005.1 hPa12.9 kmWest (260°)13 km/hOvercast
11:35 AM-2 °C-6 °C74 %1005.1 hPa12.9 kmWest (260°)11.1 km/hOvercast
11:55 AM-2 °C-6 °C74 %1004.7 hPa12.9 kmWest (260°)11.1 km/hOvercast
12:15 PM-1 °C-6 °C69 %1004.4 hPa14.5 kmWest (260°)9.3 km/hOvercast
12:35 PM-1 °C-5 °C75 %1004.4 hPa14.5 kmSW (230°)13 km/hOvercast
12:55 PM-1 °C-5 °C75 %1004.1 hPa14.5 kmSW (230°)11.1 km/hOvercast
1:15 PM-1 °C-4 °C80 %1004.1 hPa14.5 kmSW (220°)9.3 km/hOvercast
1:35 PM-1 °C-4 °C80 %1003.7 hPa14.5 kmSSW (200°)14.8 km/hOvercast
1:55 PM0 °C-4 °C75 %1003.7 hPa14.5 kmSSW (210°)11.1 km/hOvercast
2:15 PM0 °C-4 °C75 %1003.7 hPa14.5 kmSSW (200°)9.3 km/hOvercast
2:35 PM1 °C-3 °C75 %1003.7 hPa12.9 kmSouth (190°)11.1 km/hOvercast
2:55 PM1 °C-4 °C70 %1004.1 hPa12.9 kmSSW (200°)14.8 km/hOvercast
3:15 PM1 °C-4 °C70 %1004.1 hPa12.9 kmSW (220°)11.1 km/hOvercast
3:35 PM1 °C-3 °C75 %1004.1 hPa12.9 kmSW (220°)9.3 km/hOvercast
3:55 PM1 °C-3 °C75 %1004.1 hPa12.9 kmWSW (240°)9.3 km/hOvercast
4:15 PM1 °C-4 °C70 %1004.1 hPa14.5 kmWSW (240°)14.8 km/hOvercast
4:35 PM1 °C-4 °C70 %1003.7 hPa12.9 kmWSW (240°)11.1 km/hOvercast
4:55 PM1 °C-4 °C70 %1003.7 hPa12.9 kmSW (230°)13 km/hOvercast
5:35 PM0 °C-4 °C75 %1003.7 hPa11.3 kmSW (220°)9.3 km/hOvercast
5:55 PM0 °C-4 °C75 %1004.1 hPa12.9 kmSW (220°)11.1 km/hOvercast
6:15 PM-1 °C-4 °C80 %1004.1 hPa12.9 kmSW (230°)11.1 km/hOvercast
6:35 PM-1 °C-4 °C80 %1004.1 hPa16.1 kmSW (230°)11.1 km/hOvercast
6:55 PM0 °C-4 °C75 %1004.1 hPa16.1 kmWSW (240°)14.8 km/hOvercast
7:15 PM0 °C-4 °C75 %1004.1 hPa16.1 kmSW (230°)11.1 km/hOvercast
7:35 PM0 °C-4 °C75 %1004.1 hPa16.1 kmSW (230°)11.1 km/hOvercast
7:55 PM1 °C-3 °C75 %1004.1 hPa16.1 kmSW (230°)13 km/hOvercast
8:15 PM1 °C-4 °C70 %1004.1 hPa16.1 kmWSW (240°)13 km/hOvercast
8:35 PM1 °C-4 °C70 %1004.1 hPa16.1 kmWSW (240°)14.8 km/hOvercast
8:55 PM1 °C-4 °C70 %1004.1 hPa16.1 kmWSW (240°)14.8 km/hOvercast
9:15 PM1 °C-4 °C70 %1004.1 hPa16.1 kmWSW (240°)14.8 km/hOvercast
9:35 PM1 °C-3 °C75 %1004.1 hPa16.1 kmWSW (250°)14.8 km/hOvercast
9:55 PM1 °C-3 °C75 %1004.1 hPa16.1 kmWSW (250°)13 km/hOvercast
10:15 PM1 °C-3 °C75 %1004.1 hPa16.1 kmWSW (250°)13 km/hOvercast
10:35 PM1 °C-3 °C75 %1004.1 hPa16.1 kmWest (260°)13 km/hOvercast
10:55 PM1 °C-3 °C75 %1004.1 hPa8 kmWSW (250°)11.1 km/hMostly Cloudy
11:15 PM0 °C-3 °C80 %1004.1 hPa14.5 kmWSW (240°)11.1 km/hOvercast
11:35 PM1 °C-3 °C75 %1004.1 hPa16.1 kmWSW (240°)11.1 km/hOvercast
11:55 PM1 °C-3 °C75 %1004.1 hPa11.3 kmSW (230°)11.1 km/hOvercast
Hourly data recorded from KSUE, located 0 kilometers away from Sturgeon Bay, Wisconsin







STORIES FROM OUR PARTNERS